Wind_Speed
88 89 90 90 91 92 93 93 94 94 95 95 95 96 96 96 96 96 96 96 96 96 96 96 96 96 95 95 94 94 93 92 92 92 91 91 90 90 89 88 88 87
91 92 92 93 93 94 95 95 95 96 96 96 96 96 96 96 97 97 97 96 96 96 96 96 96 96 96 96 95 95 94 93 93 93 92 92 92 91 91 90 90 89
92 92 93 93 93 94 94 94 95 95 95 95 95 95 95 95 95 95 95 95 94 94 94 94 94 94 94 94 94 94 94 93 93 93 92 91 91 91 91 91 91 90
92 92 92 92 92 92 92 92 92 92 92 92 92 92 92 92 92 92 91 91 91 90 90 90 90 90 90 91 91 91 91 91 91 91 91 91 90 90 90 91 91 91
91 90 90 90 90 89 89 88 88 87 87 86 86 86 86 86 86 86 86 86 86 86 86 86 86 86 86 86 87 87 88 88 88 89 89 89 89 89 89 90 90 90
86 86 85 85 84 84 83 82 82 82 81 81 80 80 80 80 80 80 80 80 81 81 81 81 81 81 82 82 83 83 84 84 85 86 86 86 87 87 87 88 88 89
81 80 80 80 79 79 79 79 78 78 78 77 77 77 76 76 76 75 75 75 75 75 76 76 77 77 78 78 79 79 80 81 82 83 83 84 84 85 86 87 87 87
78 77 77 77 77 77 77 77 77 76 76 76 76 76 76 75 75 74 74 73 73 73 73 73 74 74 74 75 75 76 76 77 78 79 80 81 82 83 84 85 86 86
75 75 75 75 75 75 75 76 76 76 76 76 76 76 76 76 76 76 75 75 74 74 74 74 74 74 74 74 74 74 74 75 76 77 77 78 79 80 81 83 84 84
73 73 74 74 74 75 75 76 76 76 77 77 77 77 77 77 78 77 77 77 77 77 76 76 76 76 76 76 76 76 76 75 75 76 76 76 77 77 79 80 81 81
73 73 74 74 75 76 76 77 77 78 78 79 79 79 79 79 80 80 79 79 79 79 79 79 79 79 79 79 79 79 79 78 78 78 77 78 77 77 78 79 79 79
75 75 76 77 77 78 79 79 80 80 81 81 82 82 82 82 82 82 82 82 82 82 82 82 81 82 81 82 82 82 82 81 81 81 80 80 80 79 80 80 80 80
78 78 79 80 80 81 82 82 83 83 84 84 84 85 85 85 85 85 85 85 85 85 85 84 84 84 84 85 85 85 85 84 84 84 83 83 82 82 82 82 82 82
80 81 82 82 83 84 84 85 85 86 86 87 87 87 88 88 87 87 87 87 87 87 87 87 87 87 87 87 87 87 87 87 87 87 86 85 85 84 84 84 84 84
82 83 84 84 85 86 86 87 87 88 88 89 90 90 90 90 90 90 90 90 90 90 89 89 89 89 90 90 90 90 90 90 90 89 89 88 87 87 86 86 87 87
83 83 84 84 85 86 87 87 88 88 89 89 90 91 91 91 91 92 92 92 92 92 92 92 92 92 93 93 93 94 94 94 93 92 92 91 90 89 89 89 90 90
81 81 81 82 83 84 84 85 86 86 87 87 88 88 88 89 89 90 90 90 91 91 91 91 91 92 93 93 94 95 96 97 96 95 95 94 93 93 93 93 93 93
77 78 79 80 81 82 83 83 84 84 85 85 85 85 85 85 86 86 86 87 87 87 87 87 87 88 89 90 90 91 93 95 96 96 95 95 95 96 95 95 96 96
76 77 78 79 80 81 81 82 82 82 82 82 81 81 81 81 81 81 82 82 83 83 82 82 82 83 84 84 85 86 87 89 91 92 93 93 93 94 95 95 95 95
76 77 78 78 79 79 79 79 78 78 77 77 76 76 76 76 76 76 76 76 77 77 77 75 75 77 78 78 80 80 81 83 84 86 86 87 87 87 88 88 89 90
76 76 77 77 77 77 76 75 74 73 73 73 72 72 72 71 70 70 69 68 68 69 69 67 67 69 71 72 73 74 75 77 78 79 79 79 79 79 79 79 80 81
75 76 76 76 75 74 73 72 71 70 70 70 69 67 66 64 63 61 60 59 59 60 61 59 59 62 64 65 66 67 69 70 71 71 72 71 70 70 70 71 72 73
76 76 76 75 74 72 71 69 68 68 68 67 64 61 58 56 54 52 52 52 52 52 54 53 53 55 57 57 58 60 62 63 63 63 63 62 61 61 62 63 63 64
76 77 76 75 73 71 69 67 67 66 64 62 59 55 52 50 48 46 45 46 47 48 49 49 48 48 49 50 51 53 54 55 55 55 54 53 53 54 54 54 55 56
76 77 76 74 71 68 67 66 65 63 60 57 54 52 49 46 45 43 42 42 44 44 45 45 44 42 43 44 45 45 47 47 47 47 47 46 46 45 44 45 46 47
76 76 75 72 69 66 65 65 63 59 56 53 51 49 46 45 43 42 39 38 39 40 41 42 41 38 38 40 40 39 40 41 42 42 41 39 38 36 35 36 39 39
Wind_Direction
283 283 283 282 282 282 281 281 281 281 280 280 280 279 279 279 279 278 278 278 278 277 277 276 276 276 275 275 274 273 273 272 272 272 271 271 270 269 268 267 266 265
283 283 283 283 282 282 282 281 281 281 281 280 280 280 280 279 279 279 279 278 278 278 277 276 276 276 275 275 274 273 273 272 272 271 270 270 270 269 269 268 267 266
284 284 284 284 284 284 284 284 283 283 283 282 282 281 281 281 280 280 279 279 278 278 277 277 276 275 275 274 274 273 273 272 271 270 270 269 269 268 268 267 267 266
287 286 286 286 286 286 286 286 286 285 285 284 284 283 282 282 281 280 280 279 279 278 277 276 276 275 274 273 273 272 271 271 270 269 269 268 267 266 266 266 265 265
288 288 288 288 288 287 287 287 287 286 286 285 284 284 283 282 282 281 280 279 279 278 277 276 275 274 274 273 272 271 270 270 269 268 268 267 266 266 265 264 264 263
290 290 289 289 289 288 288 287 287 286 285 285 284 284 283 282 282 281 280 279 278 277 277 276 275 274 273 272 271 271 270 269 268 267 267 266 266 265 264 263 263 262
292 291 291 290 290 289 288 288 287 286 286 285 285 284 283 283 282 281 280 279 279 278 277 276 275 274 273 272 271 271 270 269 268 267 266 265 265 264 264 263 262 262
293 292 292 291 291 290 289 289 288 287 287 286 286 285 285 284 283 283 282 281 280 279 278 277 276 275 274 273 272 271 270 269 268 267 266 265 265 264 263 263 262 261
294 293 293 292 291 291 290 290 289 289 288 287 287 286 286 285 284 284 283 282 282 281 280 279 278 277 276 275 274 273 271 270 269 268 267 266 266 265 264 263 262 261
294 294 293 293 292 292 291 290 290 289 288 288 287 286 286 285 284 284 283 282 282 281 280 280 279 278 278 277 276 274 273 272 271 270 269 268 267 266 265 264 263 262
295 294 294 293 292 292 291 290 290 289 288 287 287 286 285 284 284 283 283 282 281 280 280 279 279 278 278 277 276 275 274 273 272 271 270 269 268 267 266 265 264 263
295 294 293 293 292 291 290 290 289 288 287 287 286 285 284 284 283 282 282 281 280 280 279 278 278 277 277 276 275 274 274 273 272 271 270 269 269 268 267 266 265 264
295 295 294 293 292 291 290 289 289 288 287 286 286 285 284 283 283 282 281 280 280 279 278 278 277 276 276 275 274 273 273 272 271 270 269 269 268 268 267 267 266 265
296 295 294 294 293 292 291 290 289 288 287 286 286 285 284 283 282 282 281 280 279 279 278 277 276 276 275 274 273 273 272 271 270 269 269 268 267 267 266 266 266 265
297 296 295 294 293 292 291 291 290 289 288 287 286 285 284 283 282 281 280 280 279 278 278 277 276 276 275 274 273 272 272 271 270 269 269 268 267 267 266 266 266 265
299 298 297 297 295 294 293 292 291 290 289 288 287 286 285 284 283 282 281 280 279 278 277 277 276 276 275 274 274 273 272 271 270 270 269 269 268 267 267 266 266 265
302 301 301 300 299 298 297 295 294 293 292 290 289 288 287 286 284 283 282 281 280 279 278 277 277 276 275 275 274 274 273 272 271 270 270 269 269 268 267 266 266 265
305 305 304 303 302 301 300 299 297 296 295 293 292 290 289 288 286 285 283 282 281 280 279 278 277 277 276 275 275 274 274 274 273 272 271 270 270 269 268 267 266 266
308 307 306 305 304 303 302 301 300 299 297 296 294 293 291 290 288 287 285 284 282 281 280 279 278 277 277 276 276 275 275 275 274 273 272 271 270 270 269 269 268 267
311 310 309 308 307 306 305 304 302 301 299 298 296 295 293 292 290 289 287 286 284 282 281 280 279 278 277 277 276 276 276 275 275 274 274 273 272 272 271 271 270 269
314 313 312 311 310 309 308 306 304 303 301 300 299 297 295 294 292 291 289 287 286 284 283 282 281 279 278 277 277 276 276 275 275 275 275 274 274 274 273 272 271 270
316 315 315 314 313 312 311 309 307 305 304 303 301 300 299 297 295 294 292 290 288 287 285 283 282 281 279 278 278 277 276 276 276 276 276 276 276 275 274 273 272 271
319 319 318 318 317 316 314 312 310 309 308 306 304 303 302 301 299 298 296 294 292 290 288 285 283 282 281 280 280 279 279 278 278 278 278 278 277 275 274 273 272 271
323 323 322 321 320 319 317 315 314 313 311 309 308 307 306 305 303 302 301 299 296 293 290 287 285 284 284 283 282 281 281 281 281 280 279 278 276 275 274 273 272 271
326 326 325 324 323 322 320 319 317 316 314 313 311 311 310 309 308 307 305 302 299 296 293 290 289 288 286 284 283 283 283 283 282 281 279 277 276 276 274 273 271 270
329 329 328 327 326 325 324 322 320 318 317 315 314 314 314 313 312 311 309 306 302 299 296 294 293 291 289 288 287 287 287 286 284 282 280 279 278 276 273 271 270 270
Height
5461 5458 5455 5452 5448 5445 5441 5438 5436 5433 5430 5428 5425 5423 5421 5418 5416 5414 5412 5410 5408 5407 5406 5405 5404 5402 5402 5401 5400 5401 5401 5401 5400 5400 5399 5399 5400 5400 5401 5402 5403 5404
5448 5444 5441 5438 5434 5431 5427 5424 5421 5418 5416 5413 5411 5409 5406 5404 5401 5399 5397 5395 5394 5392 5391 5390 5389 5387 5386 5386 5385 5385 5386 5386 5386 5385 5385 5386 5385 5386 5386 5386 5387 5389
5435 5431 5427 5424 5420 5417 5413 5409 5406 5403 5401 5398 5395 5393 5391 5389 5386 5384 5382 5380 5379 5377 5376 5374 5373 5372 5371 5370 5370 5370 5370 5370 5370 5370 5370 5371 5371 5371 5371 5371 5372 5374
5422 5417 5413 5410 5406 5402 5399 5395 5391 5388 5385 5382 5380 5377 5375 5373 5371 5369 5366 5364 5363 5362 5360 5359 5358 5356 5355 5355 5354 5354 5354 5354 5354 5354 5354 5356 5356 5356 5357 5356 5358 5359
5408 5404 5400 5396 5392 5388 5385 5381 5377 5374 5371 5368 5365 5362 5360 5358 5355 5353 5351 5349 5348 5346 5345 5343 5342 5341 5340 5339 5339 5339 5339 5338 5338 5338 5338 5340 5340 5339 5341 5341 5343 5345
5394 5390 5386 5382 5378 5374 5371 5368 5364 5361 5358 5355 5352 5349 5346 5343 5341 5339 5337 5335 5334 5332 5331 5329 5327 5326 5325 5324 5324 5324 5324 5323 5323 5323 5323 5325 5324 5324 5325 5325 5327 5330
5381 5377 5373 5369 5365 5361 5358 5355 5351 5348 5345 5342 5339 5336 5333 5330 5328 5325 5323 5322 5320 5319 5317 5315 5314 5312 5311 5310 5310 5310 5309 5308 5308 5308 5308 5310 5310 5310 5310 5310 5311 5314
5369 5365 5361 5357 5353 5349 5345 5342 5338 5335 5332 5329 5326 5323 5320 5317 5314 5312 5310 5308 5307 5305 5303 5301 5300 5299 5297 5296 5296 5295 5295 5294 5294 5294 5294 5295 5295 5296 5296 5295 5296 5299
5358 5354 5350 5346 5342 5338 5334 5330 5326 5323 5319 5316 5313 5310 5307 5304 5301 5299 5297 5295 5294 5292 5289 5288 5286 5285 5283 5282 5282 5281 5280 5280 5279 5279 5280 5280 5281 5281 5281 5280 5281 5285
5347 5343 5339 5335 5331 5326 5322 5318 5314 5311 5307 5304 5301 5298 5295 5291 5289 5286 5284 5282 5280 5278 5276 5274 5272 5271 5270 5268 5267 5266 5266 5266 5266 5265 5266 5266 5267 5267 5267 5266 5267 5270
5337 5332 5328 5324 5319 5315 5311 5307 5302 5298 5295 5291 5288 5285 5282 5278 5276 5273 5271 5269 5267 5264 5262 5261 5258 5257 5256 5254 5252 5251 5250 5251 5251 5251 5251 5251 5252 5252 5252 5252 5253 5255
5326 5321 5317 5312 5308 5303 5299 5295 5290 5286 5282 5278 5274 5271 5268 5265 5262 5260 5257 5255 5253 5250 5248 5247 5245 5243 5242 5240 5238 5236 5235 5236 5235 5235 5236 5236 5237 5238 5237 5237 5238 5240
5314 5309 5304 5300 5295 5290 5286 5281 5277 5273 5269 5265 5260 5257 5254 5251 5248 5246 5243 5240 5238 5236 5233 5232 5230 5229 5226 5224 5223 5221 5220 5220 5220 5219 5220 5221 5222 5223 5223 5222 5223 5225
5302 5296 5291 5286 5281 5276 5272 5267 5263 5258 5254 5250 5246 5242 5239 5236 5233 5230 5228 5225 5222 5220 5218 5216 5214 5213 5210 5207 5206 5205 5204 5203 5203 5203 5204 5206 5207 5208 5209 5208 5209 5210
5289 5283 5278 5273 5267 5262 5257 5252 5248 5243 5239 5235 5230 5226 5223 5220 5216 5213 5211 5209 5207 5204 5202 5199 5198 5196 5193 5190 5188 5188 5186 5185 5186 5187 5188 5190 5191 5193 5194 5194 5193 5194
5276 5270 5264 5258 5252 5247 5242 5237 5232 5227 5223 5218 5214 5210 5206 5202 5199 5196 5193 5191 5189 5187 5185 5183 5180 5177 5174 5172 5170 5168 5167 5166 5168 5170 5171 5173 5175 5176 5177 5178 5177 5177
5263 5257 5251 5244 5238 5232 5227 5221 5216 5211 5206 5201 5197 5193 5189 5185 5181 5178 5175 5172 5170 5169 5168 5165 5163 5159 5155 5154 5153 5149 5147 5146 5149 5153 5154 5155 5157 5158 5159 5160 5160 5160
5251 5245 5238 5231 5224 5218 5212 5206 5200 5195 5189 5184 5180 5176 5172 5168 5164 5160 5158 5154 5151 5150 5150 5148 5146 5141 5137 5136 5135 5132 5130 5128 5129 5133 5136 5138 5138 5138 5139 5141 5141 5142
5240 5233 5226 5219 5212 5205 5199 5192 5186 5180 5173 5168 5164 5160 5155 5151 5147 5144 5140 5137 5133 5132 5132 5131 5129 5124 5121 5120 5118 5116 5115 5113 5111 5113 5116 5119 5119 5119 5120 5121 5122 5122
5228 5222 5214 5207 5200 5192 5186 5179 5172 5166 5159 5154 5150 5145 5140 5136 5132 5128 5125 5121 5117 5114 5114 5115 5112 5108 5106 5105 5103 5102 5101 5098 5096 5096 5098 5099 5101 5102 5102 5103 5102 5101
5217 5210 5203 5195 5188 5180 5173 5165 5158 5152 5146 5141 5137 5131 5126 5121 5118 5114 5111 5107 5103 5099 5099 5101 5098 5093 5091 5091 5089 5088 5086 5083 5082 5082 5083 5084 5086 5087 5086 5085 5084 5082
5206 5199 5191 5184 5176 5168 5161 5153 5146 5139 5133 5128 5124 5119 5113 5108 5105 5101 5098 5095 5091 5087 5086 5088 5086 5080 5078 5078 5076 5074 5072 5070 5070 5070 5070 5072 5073 5072 5070 5068 5068 5067
5195 5187 5180 5172 5164 5156 5148 5141 5134 5128 5121 5115 5111 5107 5103 5098 5095 5092 5088 5084 5081 5078 5075 5075 5075 5070 5067 5067 5065 5062 5060 5059 5059 5059 5059 5060 5059 5058 5056 5055 5055 5053
5185 5176 5168 5160 5152 5144 5137 5129 5122 5116 5110 5104 5099 5096 5093 5089 5086 5084 5080 5075 5072 5069 5065 5064 5064 5062 5059 5058 5056 5053 5051 5050 5050 5049 5049 5048 5047 5046 5045 5044 5043 5042
5176 5167 5158 5150 5142 5135 5126 5118 5111 5106 5100 5094 5090 5086 5084 5081 5077 5075 5073 5068 5063 5060 5056 5053 5055 5055 5052 5050 5048 5046 5043 5042 5040 5039 5039 5038 5037 5037 5037 5034 5033 5032
5168 5159 5150 5141 5133 5126 5118 5109 5102 5096 5092 5087 5083 5078 5075 5072 5069 5067 5065 5061 5056 5052 5048 5046 5046 5047 5045 5042 5040 5039 5037 5034 5032 5031 5030 5030 5030 5029 5028 5026 5025 5024